Regional Weather Roundup
Issued by NWS

Home | Current Version | Previous Version | Graphics & Text | Print | Product List | Glossary On
Versions: 1 2 3 4 5 6 7 8 9 10 11 12 13 14 15 16 17 18 19 20 21 22 23 24 25 26 27 28 29 30 31 32 33 34 35 36 37 38 39 40 41 42 43 44 45 46 47 48 49 50
000
ASUS45 KCYS 221810
RWRWY

WYOMING REGIONAL WEATHER ROUNDUP
NATIONAL WEATHER SERVICE CHEYENNE WY
1100 AM MST MON DEC 22 2014

NOTE:  "FAIR" INDICATES FEW OR NO CLOUDS BELOW 12,000 FEET
WITH NO SIGNIFICANT WEATHER AND/OR OBSTRUCTIONS TO VISIBILITY.

WYZ001-221900-
YELLOWSTONE NATIONAL PARK

CITY           SKY/WX    TMP DP  RH WIND       PRES   REMARKS
LK YELLOWSTONE   N/A     21  15  78 VRB6      29.87R WCI  13
6HR MIN TEMP:  17; 6HR MAX TEMP:  22; 6HR PCP:  0.15;

W YELLOWSTONE  NOT AVBL

$$
WYZ002>013-054>058-071-098>099-221900-
NORTHERN WYOMING

CITY           SKY/WX    TMP DP  RH WIND       PRES   REMARKS
JACKSON        CLOUDY    30  19  64 MISG      29.85S
CODY           FAIR      36  16  44 NW15G25   29.78R WCI  26
GREYBULL       CLOUDY    35  29  78 N16       29.80R WCI  25
6HR MIN TEMP:  25; 6HR MAX TEMP:  36; 6HR PCP: TRACE;

WORLAND        LGT SNOW  31  29  92 W3        29.81R FOG
6HR MIN TEMP:  27; 6HR MAX TEMP:  33; 6HR PCP:  0.03;

SHERIDAN       FAIR      37  24  59 NW31G37   29.74R WCI  24
6HR MIN TEMP:  34; 6HR MAX TEMP:  38; 6HR PCP: TRACE;

BUFFALO        PTSUNNY   36  21  54 NW25G41   29.71R WCI  24
6HR MIN TEMP:  31; 6HR MAX TEMP:  37; 6HR PCP: TRACE;

GILLETTE       PTSUNNY   35  24  64 NW24G33   29.66F WCI  23
6HR MIN TEMP:  31; 6HR MAX TEMP:  36;

HULETT           N/A    N/A N/A N/A MISG        N/A
NEWCASTLE      FAIR      32  27  80 NW21G26   29.63F WCI  20

$$
WYZ014>020-022>026-101>103-221900-
CENTRAL WYOMING

CITY           SKY/WX    TMP DP  RH WIND       PRES   REMARKS
BIG PINEY      LGT SNOW  28  22  78 N14       29.86S WCI  17
6HR MIN TEMP:  21; 6HR MAX TEMP:  28; 6HR PCP: TRACE;

PINEDALE       FAIR      28  21  74 W24G30    29.83R HAZE    WCI  14
DUBOIS         NOT AVBL
LANDER         CLOUDY    29  18  63 W5        29.80R WCI  24
6HR MIN TEMP:  17; 6HR MAX TEMP:  29;

RIVERTON       PTSUNNY   26  23  88 SW6       29.80S WCI  19
6HR MIN TEMP:  23; 6HR MAX TEMP:  31; 6HR PCP:  0.02;

CASPER         CLOUDY    32  22  66 W10       29.74S WCI  24
6HR MIN TEMP:  23; 6HR MAX TEMP:  32;

DOUGLAS        FAIR      33  25  72 W18       29.71F WCI  22
6HR MIN TEMP:  23; 6HR MAX TEMP:  33;


$$
WYZ021-027>030-104>119-221900-
SOUTHERN WYOMING

CITY           SKY/WX    TMP DP  RH WIND       PRES   REMARKS
EVANSTON       CLOUDY    32  25  75 W22G32    29.93R WCI  19
6HR MIN TEMP:  30; 6HR MAX TEMP:  32; 6HR PCP:  0.02;

KEMMERER       CLOUDY    32  27  80 W26G33    29.88R HAZE    WCI  18
FORT BRIDGER   FLURRIES  34  29  83 NW21G29   29.92S WCI  22
ROCK SPRINGS   FAIR      32  24  72 W22G30    29.82R WCI  19
6HR MIN TEMP:  27; 6HR MAX TEMP:  32;

DIXON          CLOUDY    33  25  75 W6        29.82F WCI  27
RAWLINS        LGT SNOW  28  22  78 W21G29    29.74F WCI  15
6HR MIN TEMP:  20; 6HR MAX TEMP:  28; 6HR PCP: TRACE;

SARATOGA       MOCLDY    30  23  74 NW21G30   29.74F WCI  17
LARAMIE        LGT SNOW  25  20  81 NW30G36   29.67F WCI   8
6HR MIN TEMP:  19; 6HR MAX TEMP:  26; 6HR PCP: TRACE;

CHEYENNE       CLOUDY    30  18  60 NW17G32   29.68F WCI  18
6HR MIN TEMP:  24; 6HR MAX TEMP:  31;

TORRINGTON     FAIR     N/A N/A N/A NW21G31   29.66F
PINE BLUFFS    MOCLDY    32  25  74 NW20      29.69F WCI  20

$$



USA.gov is the U.S. government's official web portal to all federal, state and local government web resources and services.